Theta_e
309 311 318 326 335 337 338 341 335 338 335 325 324 326 328 328 335 329 328 333 334 329 319 319 319 322 321 317 317 318 319 319 319 319 319 318 320 324 324 325 324 320 325 332 332 332 332 330 329
310 322 328 334 341 345 343 341 342 339 335 333 327 324 325 327 327 332 336 333 333 331 322 321 318 322 322 318 318 319 320 321 321 322 323 324 325 332 334 334 334 333 333 332 333 334 335 334 332
320 323 335 341 345 347 342 339 339 336 335 330 326 324 326 329 330 333 335 334 332 331 327 324 319 321 323 319 319 320 321 322 323 325 329 332 332 332 334 336 336 334 334 332 335 335 334 334 335
325 331 334 338 341 343 341 339 338 337 332 324 324 327 326 326 329 330 333 335 332 330 329 332 321 321 323 321 320 321 322 324 325 330 335 336 336 337 336 336 337 336 335 334 335 334 332 336 336
331 336 334 340 339 338 338 338 336 335 332 329 324 326 328 326 326 327 332 336 334 331 328 333 325 322 324 321 321 322 323 326 328 333 338 338 338 337 337 336 336 336 335 335 334 334 333 331 331
333 334 336 332 331 333 333 333 333 331 329 328 325 325 327 325 327 328 332 335 335 332 329 331 330 323 324 322 322 323 325 328 331 332 336 337 337 337 336 335 336 335 335 335 334 333 332 332 332
332 335 330 331 328 329 329 329 330 330 328 329 325 326 328 328 326 327 331 335 333 334 333 331 339 327 324 323 322 324 327 329 330 331 334 335 332 332 329 329 330 331 332 333 333 333 332 332 332
331 333 332 332 328 328 327 328 326 328 330 325 326 329 330 328 325 326 330 335 335 334 335 334 337 341 340 338 325 326 329 329 327 333 327 326 326 325 325 327 327 326 330 331 331 332 332 330 329
326 332 331 329 328 328 326 328 327 327 329 328 327 328 327 326 324 331 335 336 335 335 336 337 339 340 340 340 340 331 332 329 330 327 327 327 329 330 328 327 324 327 327 328 330 331 331 331 330
331 333 331 328 327 327 326 327 328 328 329 329 329 328 325 325 326 329 334 335 335 336 336 336 336 340 338 340 340 341 339 336 334 333 331 331 331 329 327 325 323 325 328 329 330 331 332 329 331
329 332 330 329 328 326 327 328 327 328 329 328 329 329 329 329 327 328 331 332 333 334 336 336 335 335 338 340 339 338 335 333 333 328 327 328 329 329 328 327 327 327 325 325 326 327 326 327 330
328 329 329 329 328 328 328 328 328 329 330 329 329 329 329 329 329 328 329 331 333 333 335 338 336 333 333 337 334 332 332 327 328 327 326 327 329 330 328 326 327 326 326 327 327 328 328 329 330
329 328 328 329 329 329 329 329 329 329 328 327 328 329 329 330 329 327 327 328 331 332 333 337 336 333 334 333 330 326 325 326 327 325 326 326 328 328 328 327 327 327 326 327 327 327 327 328 330
323 326 326 327 328 328 328 327 327 327 328 328 328 328 328 328 328 326 326 327 328 329 330 333 335 335 336 330 326 325 324 322 325 326 326 326 327 327 328 328 327 327 327 326 326 326 327 327 329
323 326 326 326 326 327 323 322 323 325 325 325 326 327 327 327 325 326 326 327 327 327 327 328 332 336 332 328 326 324 322 324 326 327 327 327 327 328 328 329 328 327 327 324 326 326 326 327 328
318 319 319 319 319 320 319 322 322 323 324 325 326 326 325 326 327 326 326 327 327 326 324 324 328 331 329 327 324 323 322 326 327 328 328 328 328 328 329 329 328 328 327 325 326 326 326 327 327
318 319 319 319 319 320 322 322 321 322 323 324 324 325 325 326 327 326 325 326 326 324 324 322 326 329 327 324 323 320 325 326 327 328 329 328 329 328 328 329 328 327 326 325 326 326 325 326 327
319 318 318 319 319 318 319 321 321 321 322 324 324 325 326 326 326 326 324 324 324 323 321 322 325 327 324 324 322 324 326 327 328 328 329 329 330 329 328 328 327 326 324 325 326 326 325 325 327
318 320 321 321 318 317 318 319 321 322 322 323 324 325 327 328 327 323 322 322 323 324 325 326 327 326 326 326 326 328 329 330 329 329 328 329 330 329 329 327 326 322 323 326 326 326 325 325 326
315 318 319 318 317 318 319 320 322 322 323 322 324 326 326 327 327 325 323 323 324 325 326 327 327 325 326 327 327 329 329 330 330 329 329 330 330 329 328 326 326 325 326 327 326 326 325 325 326
315 315 316 317 317 318 320 321 320 320 323 323 323 324 326 326 328 327 324 323 325 325 326 327 328 325 325 326 327 327 328 329 331 331 330 329 329 328 327 327 327 327 327 327 326 325 325 325 326
316 316 315 315 317 319 320 323 322 322 322 322 324 326 327 326 325 327 325 325 325 326 326 328 328 326 326 326 328 330 332 333 330 330 329 328 326 327 328 328 328 328 327 326 325 325 325 325 326
316 316 317 317 319 320 320 323 321 323 322 322 322 326 327 324 325 327 326 325 325 326 327 328 328 328 328 327 329 331 333 330 330 329 329 328 327 327 327 327 327 327 326 326 326 325 326 326 326
317 318 319 320 321 323 321 322 321 322 322 322 325 326 325 326 326 325 325 325 326 327 328 329 329 330 328 328 327 330 332 330 329 329 329 329 328 328 327 326 327 326 327 327 326 326 326 327 326
319 320 321 321 321 323 321 322 322 323 321 322 324 327 326 328 327 326 327 327 327 328 328 329 330 329 329 328 329 330 330 327 328 328 329 329 328 328 328 327 326 327 326 327 327 327 327 328 328
320 320 319 322 324 322 321 321 321 323 322 323 325 326 326 328 327 327 327 327 327 328 329 329 330 329 329 329 331 329 328 327 327 328 328 328 328 328 327 326 327 327 326 327 327 328 328 328 329
320 321 319 321 323 324 325 324 325 325 325 326 325 325 328 329 328 327 327 327 327 328 330 330 329 328 329 329 329 329 329 325 328 327 327 328 327 328 328 327 326 328 328 328 329 329 329 328 329
318 319 319 319 320 321 323 325 326 326 327 327 328 328 328 329 328 326 327 327 327 328 329 329 328 328 329 327 330 330 329 327 328 327 328 328 328 328 328 327 328 329 329 327 327 328 328 330 329
315 319 318 319 318 319 319 320 327 329 328 329 330 328 329 329 328 327 327 326 327 328 328 328 327 327 326 326 329 330 330 329 328 328 327 328 328 328 328 327 328 329 328 327 330 328 328 329 331
315 317 318 317 319 319 320 320 324 327 327 327 328 327 328 329 328 327 327 326 326 327 328 327 327 327 326 328 328 330 331 330 329 328 328 328 328 328 328 328 328 328 327 329 327 327 327 328 328
Wind_Speed
15 16 13 3 2 2 3 5 2 3 2 1 4 4 5 2 4 6 2 14 13 30 30 34 31 27 25 23 19 17 15 13 12 11 9 9 9 9 9 9 8 8 8 7 6 6 6 7 8
19 14 3 2 2 3 4 4 6 5 3 11 7 7 6 7 4 5 2 20 17 29 30 33 34 30 27 24 22 19 17 16 15 14 13 12 12 12 13 12 12 11 10 10 10 9 8 8 9
13 4 3 2 3 6 3 6 3 2 10 4 3 3 2 3 4 3 7 25 18 28 30 31 34 32 29 26 24 21 19 18 17 16 16 15 15 15 16 15 15 14 13 13 14 13 11 12 10
6 4 3 4 11 8 5 4 3 10 2 3 2 8 2 5 2 4 11 26 20 26 30 27 33 33 30 27 25 23 20 19 18 17 16 17 17 18 18 17 18 16 16 16 16 15 15 14 13
2 1 4 4 9 7 9 14 6 9 7 4 2 3 5 3 9 5 13 25 24 25 30 26 32 35 32 28 26 24 22 19 17 17 17 18 17 17 17 17 17 18 17 18 18 17 16 17 18
3 1 4 8 9 7 8 12 6 6 3 3 2 3 5 3 6 7 15 25 24 27 29 29 30 34 31 29 26 24 21 18 17 15 15 17 16 15 15 15 16 16 16 17 18 16 18 20 19
4 4 5 8 11 11 5 5 6 6 4 1 1 3 3 6 6 8 13 22 25 27 27 30 27 33 31 28 26 24 21 17 16 14 14 17 16 14 14 15 16 16 17 17 17 18 20 19 18
1 3 5 6 9 9 1 2 4 3 2 3 3 2 8 7 8 9 14 17 18 23 25 28 27 26 25 23 26 24 20 17 16 15 16 14 12 12 12 13 14 13 13 16 18 19 20 21 21
3 6 13 14 11 9 2 4 2 5 10 6 4 13 10 11 9 5 11 16 19 20 23 26 25 25 24 22 21 23 19 18 17 15 14 11 10 10 11 13 14 12 12 13 14 16 17 18 21
7 11 19 15 14 13 6 7 7 7 14 22 17 16 13 11 9 13 16 22 25 25 26 26 27 24 23 20 19 17 16 15 14 13 12 11 11 11 13 14 14 13 12 13 14 14 14 14 16
9 20 25 21 19 9 16 17 13 14 22 23 17 21 21 17 14 15 21 27 34 28 24 27 27 26 23 19 17 16 15 14 14 15 15 13 13 13 13 13 11 10 12 11 11 12 12 13 12
15 23 23 26 20 14 21 18 18 18 30 25 23 19 19 22 16 17 22 28 29 28 27 23 26 27 27 22 20 18 16 16 14 14 16 16 15 15 15 13 12 11 11 10 9 9 9 10 11
22 20 19 20 21 20 20 22 19 24 30 22 22 21 19 20 20 23 26 29 27 29 25 25 29 31 33 28 21 20 19 15 14 14 16 17 15 15 15 14 13 12 10 10 10 9 8 8 10
15 22 24 18 17 22 22 26 17 24 28 20 20 22 21 20 21 20 20 28 27 30 28 24 29 30 29 27 24 22 18 16 14 15 16 16 16 16 14 14 13 13 12 10 9 9 8 8 9
15 16 12 13 15 14 11 24 18 29 21 20 23 21 20 20 20 18 25 26 34 31 25 28 30 33 31 28 24 20 17 16 15 16 17 17 18 18 16 14 14 13 12 11 9 8 7 8 8
10 11 18 13 18 12 14 25 17 20 13 16 19 17 16 19 19 23 25 25 20 22 24 27 29 32 31 27 23 18 16 15 15 16 17 18 19 18 15 14 12 11 11 10 9 8 8 9 9
10 14 14 11 9 5 16 21 16 12 8 16 19 19 19 19 19 24 22 22 19 23 24 29 29 30 30 26 20 17 15 15 15 16 15 17 17 16 15 13 11 10 10 10 10 9 10 10 10
15 14 14 14 10 17 20 24 18 19 12 18 19 19 19 19 23 20 16 15 16 21 28 34 33 31 28 22 17 15 14 14 15 16 14 13 13 13 12 11 12 10 10 10 9 10 9 10 9
18 20 26 19 14 14 19 18 12 17 18 20 20 20 20 19 18 9 7 9 14 20 25 27 28 28 25 18 12 9 10 10 11 11 10 10 10 10 11 12 12 11 11 10 9 8 9 10 8
24 23 21 16 12 12 15 21 15 16 22 22 20 20 20 18 16 6 2 6 15 18 22 27 29 30 23 16 12 7 7 8 8 9 8 6 6 7 9 11 10 9 9 9 9 10 10 10 9
27 28 23 19 12 13 13 23 18 22 13 16 18 19 19 16 12 4 4 7 10 17 22 26 26 26 21 15 12 9 7 6 5 3 2 1 4 5 7 9 10 9 7 8 9 11 11 12 11
26 24 22 20 13 16 3 16 15 21 22 21 19 16 17 11 7 5 8 11 14 17 22 24 23 22 19 17 10 8 5 4 2 2 1 1 1 2 3 5 7 7 7 7 8 10 12 12 11
18 14 17 19 18 18 17 11 13 10 20 23 21 17 10 4 4 7 9 13 16 21 23 20 20 19 17 15 10 8 5 3 1 1 1 1 1 2 2 4 6 6 6 6 8 10 12 11 10
11 13 14 8 10 13 15 11 12 16 19 14 13 9 2 1 5 9 12 17 19 22 21 20 19 16 16 13 10 6 4 2 1 2 1 1 2 2 3 5 4 5 5 7 9 10 11 10 8
20 14 7 7 7 10 15 13 19 17 18 19 18 6 1 5 8 11 15 16 22 22 21 19 18 16 14 12 9 6 3 2 1 1 1 1 3 5 5 5 4 2 5 6 7 9 9 10 9
27 21 9 9 6 7 6 10 8 18 19 22 15 10 4 8 9 12 14 16 23 22 21 20 18 14 13 10 8 6 3 2 1 1 1 1 5 7 6 6 4 3 3 4 5 6 7 5 5
25 20 14 2 2 4 5 7 10 16 12 8 10 5 8 10 11 14 16 19 22 21 21 20 17 13 12 9 8 6 4 3 2 3 2 4 7 8 6 5 3 3 2 4 5 6 7 6 6
17 20 10 9 10 8 5 5 8 3 15 10 9 9 10 11 12 14 16 18 20 20 19 17 15 13 11 9 8 6 5 4 4 4 5 6 7 7 6 4 2 3 3 4 5 7 7 7 7
11 21 7 9 5 6 3 5 8 11 5 4 3 10 13 14 14 14 15 18 18 18 18 17 14 12 10 8 7 6 6 5 5 5 5 5 7 6 5 5 3 3 3 4 5 6 6 7 8
20 22 20 10 9 8 2 4 2 8 5 6 2 10 10 13 14 15 15 18 17 18 18 16 13 11 10 9 7 6 7 6 6 5 5 5 7 7 5 5 5 5 5 6 5 5 7 9 9
Wind_Direction
150 145 145 115 202 261 227 229 251 226 196 113 132 194 243 273 194 297 286 190 174 180 182 191 197 196 196 200 201 205 209 213 217 220 228 237 244 243 249 251 262 270 273 271 267 264 260 252 256
150 143 151 128 222 217 221 232 217 235 328 313 247 201 216 255 232 268 217 181 180 184 185 190 199 200 200 203 205 209 213 218 221 225 228 235 246 245 243 241 246 255 265 271 273 264 258 249 248
148 159 227 209 199 223 230 200 188 281 307 274 275 245 188 223 213 246 205 178 178 182 189 196 201 201 203 206 208 212 216 222 225 226 229 233 242 246 246 242 248 253 255 257 254 250 255 255 246
166 169 108 242 235 241 239 191 239 320 58 161 252 275 241 242 225 238 192 179 178 184 192 199 204 202 205 208 211 215 220 223 227 228 231 235 241 244 249 248 249 254 255 255 255 257 261 258 251
114 135 228 250 252 258 247 263 266 285 301 281 265 270 260 246 243 265 193 184 185 189 196 200 206 205 207 209 213 217 222 227 230 231 230 240 245 255 257 255 255 259 260 257 255 255 255 262 265
130 181 226 250 255 256 263 260 251 240 236 307 215 266 264 306 271 233 200 195 195 196 198 202 207 208 210 211 214 220 223 228 234 239 242 244 252 257 260 261 263 266 263 262 261 257 257 255 259
196 173 248 271 280 284 253 258 218 204 206 149 173 255 288 316 304 244 216 203 201 201 200 201 202 208 213 216 215 218 222 227 234 243 248 249 250 254 261 266 267 267 266 265 263 260 260 260 257
197 212 230 235 266 273 313 233 137 196 316 350 194 247 299 316 326 243 223 209 210 206 203 200 201 200 204 210 218 219 219 226 232 239 244 245 246 259 274 274 276 268 265 265 261 261 260 262 260
139 231 240 236 228 252 212 249 59 327 300 266 267 285 300 301 302 234 213 214 214 211 207 200 200 199 201 205 211 218 222 225 231 236 241 241 250 261 263 271 267 269 268 267 264 265 262 266 259
195 228 235 236 246 261 280 290 297 285 292 277 282 272 275 281 277 255 222 217 218 211 210 205 203 200 202 205 205 206 215 218 222 227 230 238 250 258 262 271 267 266 265 265 264 268 267 280 251
207 231 236 256 252 265 283 280 289 288 287 279 290 296 304 290 272 246 244 230 219 217 213 207 205 205 203 202 201 205 213 218 227 237 240 244 253 255 255 261 260 262 266 264 263 269 271 268 252
234 231 238 248 260 264 265 290 276 282 270 281 289 285 283 286 279 246 242 236 228 218 218 212 202 202 205 206 205 211 216 226 235 239 246 250 255 250 250 255 255 262 260 259 265 266 268 268 253
232 245 231 245 265 263 272 267 270 286 280 287 278 278 270 276 273 258 248 247 235 230 218 208 205 202 205 206 206 213 221 232 238 243 245 249 246 248 255 251 250 251 255 257 263 259 265 264 248
226 239 246 241 254 262 266 269 267 266 268 285 281 276 278 272 269 271 249 242 229 228 216 206 206 204 200 203 209 216 225 236 236 242 245 246 247 252 252 252 251 251 246 255 251 253 259 255 243
242 252 236 233 236 248 285 269 244 258 278 272 276 278 277 275 274 254 252 236 230 227 213 203 203 200 200 203 208 213 226 228 238 245 249 251 251 253 249 249 247 246 241 249 248 246 248 247 234
220 229 242 230 233 248 222 266 267 266 268 275 274 283 280 277 276 271 260 246 237 223 201 200 199 198 197 200 202 212 218 228 243 254 259 259 255 252 245 243 245 238 231 240 244 239 243 239 231
211 233 221 237 197 209 200 268 262 272 283 283 281 283 280 282 278 268 267 254 230 209 194 198 193 191 189 190 199 207 219 236 251 261 266 266 255 246 238 240 242 233 235 235 233 231 233 231 223
219 227 238 238 222 230 243 253 275 286 294 279 287 283 278 274 272 286 275 252 210 195 200 196 186 183 178 181 190 203 223 245 257 262 269 266 254 239 231 236 239 236 230 227 222 228 226 228 218
252 252 246 243 224 245 255 272 276 292 292 285 287 282 277 272 282 288 292 216 190 187 182 172 166 172 171 169 171 202 227 249 255 262 274 269 240 229 228 234 237 231 225 227 222 226 225 220 204
231 244 243 250 247 253 281 277 288 282 280 280 280 285 277 283 282 281 183 205 186 176 173 166 163 169 173 173 177 186 215 240 258 273 281 265 237 233 231 228 225 222 223 216 215 213 215 219 203
224 230 237 244 264 263 278 279 275 278 280 280 275 274 274 269 283 246 154 168 188 168 165 159 160 168 170 173 177 199 228 253 268 268 282 283 249 243 241 223 213 212 217 221 215 212 210 200 204
231 221 242 246 254 260 246 284 274 283 284 277 280 275 268 264 238 173 152 163 172 161 155 153 159 163 169 173 174 187 208 246 256 288 300 290 237 203 210 211 202 208 214 211 210 201 199 200 198
236 221 229 236 240 264 257 269 281 276 275 275 274 268 271 302 211 157 159 156 160 154 152 152 153 160 165 173 176 184 209 246 244 249 232 204 144 158 185 189 189 195 200 207 201 193 198 204 210
184 216 210 222 237 247 252 243 277 265 257 275 267 251 345 359 127 136 145 146 150 152 150 151 154 159 163 172 179 189 215 202 202 235 229 224 185 155 172 149 157 179 203 214 201 199 205 208 223
189 179 176 210 218 255 249 235 244 262 249 255 262 288 29 136 138 149 150 149 151 154 154 156 160 157 167 177 185 200 197 188 226 261 267 214 162 167 164 150 148 186 186 187 184 196 203 214 231
188 185 189 194 197 225 165 212 248 242 255 245 250 280 195 154 151 149 151 153 155 157 159 163 160 159 172 177 185 184 174 167 154 356 49 135 164 158 142 141 128 135 164 172 155 178 186 197 225
191 203 192 213 37 254 167 253 283 248 256 237 237 210 179 158 159 152 156 164 160 160 168 165 160 166 169 175 182 173 172 166 147 67 105 142 142 148 141 146 137 137 127 126 142 157 165 179 171
188 174 190 212 213 233 193 261 249 240 226 213 202 194 163 160 150 159 166 167 165 165 167 162 165 168 170 175 176 173 175 167 138 111 127 136 137 144 151 150 133 117 97 118 139 144 153 151 144
178 187 188 192 220 209 243 239 209 238 218 196 183 165 167 154 159 165 170 168 163 165 165 164 164 165 166 175 174 170 167 168 144 134 137 140 132 141 160 163 158 126 112 103 105 115 130 136 140
197 188 183 188 192 211 247 250 21 256 271 251 190 136 147 158 159 165 170 164 167 169 165 166 164 171 168 168 171 164 160 159 149 145 147 137 139 143 159 160 157 134 121 99 98 123 135 137 130